• In Hungary
  • List of Countries
  • For 7 days
  • Water Temperature
  • Satellite Maps
  • Weather Map
  • News
  • Weather Widgets
  • user-avatar
    Login

    Hourly Weather Ibadan

    Today, 12 November, Monday

    Time Temperature Precipitation Wind Pressure Humidity
    00:00 +25°C° 0 mm 0 mps 740 mmHg 86%
    01:00 +24°C° 0 mm 0 mps 740 mmHg 88%
    02:00 +24°C° 0 mm 0 mps 740 mmHg 90%
    03:00 +24°C° 0 mm 0 mps 740 mmHg 93%
    04:00 +24°C° 0 mm 0 mps 740 mmHg 93%
    05:00 +24°C° 0 mm 0 mps 740 mmHg 94%
    06:00 +24°C° 0 mm 0 mps 740 mmHg 93%
    07:00 +26°C° 0 mm 0 mps 741 mmHg 82%
    08:00 +29°C° 0 mm 0 mps 741 mmHg 71%
    09:00 +33°C° 0 mm 1 mps 742 mmHg 60%
    10:00 +35°C° 0 mm 1 mps 741 mmHg 52%
    11:00 +37°C° 0 mm 1 mps 741 mmHg 43%
    12:00 +39°C° 0 mm 1 mps 741 mmHg 39%
    13:00 +37°C° 0 mm 1 mps 740 mmHg 39%
    14:00 +36°C° 0 mm 1 mps 740 mmHg 39%
    15:00 +36°C° 0 mm 1 mps 739 mmHg 39%
    16:00 +34°C° 0 mm 1 mps 739 mmHg 46%
    17:00 +32°C° 0 mm 1 mps 739 mmHg 53%
    18:00 +31°C° 0 mm 1 mps 739 mmHg 60%
    19:00 +30°C° 0.1 mm 1 mps 740 mmHg 67%
    20:00 +29°C° 0.1 mm 1 mps 740 mmHg 74%
    21:00 +28°C° 0.1 mm 1 mps 741 mmHg 81%
    22:00 +27°C° 0 mm 1 mps 741 mmHg 84%
    23:00 +27°C° 0 mm 1 mps 741 mmHg 87%

    Tomorrow, 13 November, Tuesday

    Time Temperature Precipitation Wind Pressure Humidity
    00:00 +24°C° 0 mm 0 mps 741 mmHg 90%
    01:00 +24°C° 0 mm 0 mps 740 mmHg 91%
    02:00 +24°C° 0 mm 0 mps 740 mmHg 93%
    03:00 +24°C° 0 mm 0 mps 740 mmHg 94%
    04:00 +23°C° 0 mm 0 mps 740 mmHg 94%
    05:00 +23°C° 0 mm 0 mps 740 mmHg 95%
    06:00 +23°C° 0 mm 0 mps 740 mmHg 95%
    07:00 +26°C° 0 mm 0 mps 741 mmHg 83%
    08:00 +29°C° 0 mm 0 mps 741 mmHg 72%
    09:00 +33°C° 0 mm 1 mps 742 mmHg 60%
    10:00 +35°C° 0 mm 1 mps 741 mmHg 51%
    11:00 +37°C° 0 mm 1 mps 741 mmHg 41%
    12:00 +40°C° 0 mm 1 mps 740 mmHg 32%
    13:00 +40°C° 0 mm 1 mps 740 mmHg 31%
    14:00 +40°C° 0 mm 1 mps 739 mmHg 30%
    15:00 +39°C° 0 mm 1 mps 738 mmHg 29%
    16:00 +36°C° 0 mm 1 mps 738 mmHg 36%
    17:00 +34°C° 0 mm 1 mps 739 mmHg 43%
    18:00 +32°C° 0 mm 1 mps 739 mmHg 50%
    19:00 +30°C° 0 mm 1 mps 739 mmHg 60%
    20:00 +29°C° 0 mm 1 mps 740 mmHg 69%
    21:00 +28°C° 0 mm 1 mps 740 mmHg 79%
    22:00 +28°C° 0 mm 1 mps 740 mmHg 83%
    23:00 +28°C° 0 mm 1 mps 740 mmHg 88%

    Day after tomorrow, 14 November, Wednesday

    Time Temperature Precipitation Wind Pressure Humidity
    00:00 +27°C° 0 mm 1 mps 740 mmHg 92%
    01:00 +27°C° 0 mm 1 mps 740 mmHg 93%
    02:00 +27°C° 0 mm 1 mps 740 mmHg 94%
    03:00 +27°C° 0 mm 1 mps 739 mmHg 95%
    04:00 +27°C° 0 mm 1 mps 740 mmHg 94%
    05:00 +27°C° 0 mm 1 mps 740 mmHg 93%
    06:00 +27°C° 0 mm 1 mps 740 mmHg 92%
    07:00 +28°C° 0.1 mm 1 mps 741 mmHg 86%
    08:00 +29°C° 0.1 mm 1 mps 741 mmHg 80%
    09:00 +30°C° 0.1 mm 1 mps 741 mmHg 74%
    10:00 +32°C° 0 mm 1 mps 741 mmHg 66%
    11:00 +34°C° 0 mm 1 mps 740 mmHg 58%
    12:00 +36°C° 0 mm 1 mps 740 mmHg 50%
    13:00 +36°C° 0 mm 1 mps 739 mmHg 47%
    14:00 +36°C° 0 mm 1 mps 739 mmHg 43%
    15:00 +37°C° 0 mm 1 mps 738 mmHg 40%
    16:00 +35°C° 0 mm 1 mps 738 mmHg 47%
    17:00 +33°C° 0 mm 1 mps 739 mmHg 54%
    18:00 +31°C° 0 mm 1 mps 739 mmHg 61%
    19:00 +30°C° 0 mm 1 mps 739 mmHg 66%
    20:00 +29°C° 0 mm 1 mps 740 mmHg 71%
    21:00 +29°C° 0 mm 2 mps 741 mmHg 77%
    22:00 +28°C° 0 mm 1 mps 741 mmHg 81%
    23:00 +28°C° 0 mm 1 mps 741 mmHg 86%

    15 November, Thursday

    Time Temperature Precipitation Wind Pressure Humidity
    00:00 +27°C° 0 mm 1 mps 740 mmHg 90%
    01:00 +27°C° 0 mm 1 mps 740 mmHg 92%
    02:00 +27°C° 0 mm 1 mps 740 mmHg 93%
    03:00 +26°C° 0 mm 1 mps 739 mmHg 94%
    04:00 +27°C° 0 mm 1 mps 740 mmHg 94%
    05:00 +27°C° 0 mm 1 mps 740 mmHg 94%
    06:00 +25°C° 0 mm 0 mps 741 mmHg 94%
    07:00 +28°C° 0 mm 1 mps 741 mmHg 85%
    08:00 +30°C° 0 mm 1 mps 742 mmHg 76%
    09:00 +32°C° 0 mm 2 mps 742 mmHg 67%
    10:00 +33°C° 0.2 mm 1 mps 742 mmHg 64%
    11:00 +34°C° 0.2 mm 1 mps 741 mmHg 60%
    12:00 +35°C° 0.2 mm 1 mps 741 mmHg 57%
    13:00 +34°C° 0.6 mm 1 mps 740 mmHg 58%
    14:00 +34°C° 0.6 mm 1 mps 739 mmHg 59%
    15:00 +34°C° 0.6 mm 1 mps 739 mmHg 59%
    16:00 +32°C° 0 mm 1 mps 739 mmHg 65%
    17:00 +31°C° 0 mm 2 mps 739 mmHg 70%
    18:00 +29°C° 0 mm 2 mps 740 mmHg 76%
    19:00 +29°C° 0.1 mm 2 mps 740 mmHg 80%
    20:00 +28°C° 0.1 mm 2 mps 741 mmHg 84%
    21:00 +28°C° 0.1 mm 2 mps 742 mmHg 88%
    22:00 +27°C° 0.1 mm 2 mps 741 mmHg 89%
    23:00 +27°C° 0.1 mm 1 mps 741 mmHg 91%

    16 November, Friday

    Time Temperature Precipitation Wind Pressure Humidity
    00:00 +27°C° 0.1 mm 1 mps 741 mmHg 93%
    01:00 +27°C° 0 mm 1 mps 741 mmHg 94%
    02:00 +26°C° 0 mm 1 mps 741 mmHg 94%
    03:00 +26°C° 0 mm 1 mps 741 mmHg 94%
    04:00 +26°C° 0 mm 1 mps 741 mmHg 94%
    05:00 +24°C° 0 mm 0 mps 741 mmHg 94%
    06:00 +24°C° 0 mm 0 mps 742 mmHg 94%
    07:00 +28°C° 0 mm 1 mps 742 mmHg 86%
    08:00 +29°C° 0 mm 1 mps 743 mmHg 77%
    09:00 +31°C° 0 mm 1 mps 743 mmHg 69%
    10:00 +32°C° 0 mm 1 mps 743 mmHg 63%
    11:00 +33°C° 0 mm 1 mps 742 mmHg 58%
    12:00 +35°C° 0 mm 1 mps 742 mmHg 53%
    13:00 +35°C° 0.1 mm 1 mps 741 mmHg 53%
    14:00 +34°C° 0.1 mm 1 mps 740 mmHg 52%
    15:00 +34°C° 0.1 mm 1 mps 740 mmHg 52%
    16:00 +32°C° 0.5 mm 2 mps 740 mmHg 61%
    17:00 +31°C° 0.5 mm 2 mps 740 mmHg 70%
    18:00 +29°C° 0.5 mm 2 mps 741 mmHg 79%
    19:00 +28°C° 0 mm 2 mps 741 mmHg 82%
    20:00 +28°C° 0 mm 2 mps 742 mmHg 85%
    21:00 +27°C° 0 mm 2 mps 742 mmHg 88%
    22:00 +27°C° 0 mm 1 mps 742 mmHg 90%
    23:00 +27°C° 0 mm 1 mps 742 mmHg 92%

    17 November, Saturday

    Time Temperature Precipitation Wind Pressure Humidity
    00:00 +26°C° 0 mm 1 mps 741 mmHg 94%
    01:00 +26°C° 0.3 mm 1 mps 741 mmHg 95%
    02:00 +26°C° 0.3 mm 1 mps 741 mmHg 96%
    03:00 +26°C° 0.3 mm 1 mps 740 mmHg 97%
    04:00 +24°C° 0 mm 0 mps 741 mmHg 97%
    05:00 +24°C° 0 mm 0 mps 741 mmHg 97%
    06:00 +24°C° 0 mm 0 mps 742 mmHg 97%
    07:00 +27°C° 0 mm 1 mps 742 mmHg 90%
    08:00 +29°C° 0 mm 1 mps 743 mmHg 82%
    09:00 +31°C° 0 mm 2 mps 743 mmHg 74%
    10:00 +32°C° 0 mm 2 mps 742 mmHg 66%
    11:00 +35°C° 0 mm 2 mps 742 mmHg 58%
    12:00 +36°C° 0 mm 2 mps 741 mmHg 51%
    13:00 +36°C° 0 mm 2 mps 740 mmHg 49%
    14:00 +37°C° 0 mm 2 mps 740 mmHg 47%
    15:00 +37°C° 0 mm 2 mps 739 mmHg 45%
    16:00 +35°C° 0 mm 2 mps 739 mmHg 53%
    17:00 +32°C° 0 mm 2 mps 740 mmHg 61%
    18:00 +30°C° 0 mm 2 mps 740 mmHg 69%
    19:00 +29°C° 0 mm 2 mps 740 mmHg 74%
    20:00 +29°C° 0 mm 2 mps 741 mmHg 79%
    21:00 +28°C° 0 mm 2 mps 741 mmHg 84%
    22:00 +27°C° 0 mm 2 mps 741 mmHg 86%
    23:00 +27°C° 0 mm 1 mps 741 mmHg 89%
    Show more